COSMOS 2251 DEB

Satellite information

Favourite Embed

Satellite Type and Status

DEBRISIN ORBIT

Key statistics

Satellite COSMOS 2251 DEB at a glance.

Uptime

11868

Days in orbit

Revolutions

≈ 15.7

Per day

Orbit

LEO

Low Earth Orbit

Inclination

74.0

Latest

Satellite identification and parameters

Extended collection of information and parameters for COSMOS 2251 DEB.

Object identification

Identified? True

Debris? True

Object name: COSMOS 2251 DEB

International designator: 1993-036MV

Object number (NORAD): 34299

Object ID (CCSDS): 34299

Country: COMMONWEALTH OF INDEPENDENT STATES (CIS)

Current information (Y/N): Y

RCS size: SMALL

Orbital parameters

Period: 91.619 minutes

Inclination: 73.9778 deg

SMA: 6732.114 km

Apoapsis: 367.354 km

Periapsis: 340.605 km

RAAN: 336.1995 deg

Eccentricy: 0.0019867

Argument of periapsis: 58.1064 deg

Mean anomaly: 302.2089 deg

Mean motion: 15.71721272 rev/day

Mean motion (dot): 0.00987514 rev/day2

B* drag term: 0.0068656 1/REarth

Two-line elements (TLE)

Creation date: Dec. 12, 2025, 7:06 a.m.

Reference frame: TEME

Reference center: EARTH

Epoch: Dec. 12, 2025, 12:15 a.m. UTC

TLE line 0: 0 COSMOS 2251 DEB

TLE line 1: 1 34299U 93036MV 25346.01054338 .00987514 00000-0 68656-2 0 9999

TLE line 2: 2 34299 73.9778 336.1995 0019867 58.1064 302.2089 15.71721272889993

Live tracking on map

Real-time ground track for satellite COSMOS 2251 DEB.

In-orbit conjunctions

A list of the most updated potential collisions computed for object COSMOS 2251 DEB.

Target Orbit TCA Probability of collision Miss distance Type
PEGASUS R/B SSO 2024-11-18 05:03:58 0.0008039264 107.0 (m) ROCKET BODY
DELTA 1 DEB SSO 2024-08-07 05:23:17 0.0002832 207.0 (m) DEBRIS

Associated space launch

Military communications satellite. Destroyed in a collision with Iridium 33.

COSMOS 2251 DEB was lifted into orbit during the mission ‘Kosmos-3M | Strela-2M 51’, on board a Kosmos-3M space rocket.

The launch took place on June 16, 1993, 4:17 a.m. from 132/1 (132L).

For more information about the launch, click the button.

Launch to space Kosmos-3M | Strela-2M 51
Kosmos-3M | Strela-2M 51

Agency: N/A

Status: Launch Successful

Launch date: June 16, 1993, 4:17 a.m. UTC

Rocket: Kosmos-3M

Launch pad: 132/1 (132L)

Location: Plesetsk Cosmodrome, Russian Federation

...

Latest news about this satellite

There are no fresh news available about this satellite. Check back as we update our databases every day.


Newsletter sign-up

Weekly statistics, charts and insights to help you stay on top of the space industry.